User: anonymous   Login
Location: Newark
(42.8833°N, 20.3500°E)
Time: 09:41:09
(UTC+00:00)
Language:

Envisat - Orbit

View from above orbital plane
View from above orbital plane
View from above satellite
View from above satellite

Ground track
Ground track

The orbit data is extracted from the following two-line orbital elements,

1 27386U 02009A   19237.93056900 +.00000004 +00000-0 +14829-4 0  9993
2 27386 098.1475 255.4598 0001389 088.4595 333.3089 14.37955444915932
Epoch (UTC): 25 August 2019 22:20:01
Eccentricity: 0.0001389
inclination: 98.1475°
perigee height: 764 km
apogee height: 766 km
right ascension of ascending node: 255.4598°
argument of perigee: 88.4595°
revolutions per day: 14.37955444
mean anomaly at epoch: 333.3089°
orbit number at epoch: 91593

The dashed part of the orbit path shows where the satellite is in the earth's shadow,  

DLR